Regional Weather Roundup
Issued by NWS

Home | Current Version | Previous Version | Graphics & Text | Print | Product List | Glossary Off
Versions: 1 2 3 4 5 6 7 8 9 10 11 12 13 14 15 16 17 18 19 20 21 22 23 24 25 26 27 28 29 30 31 32 33 34 35 36 37 38 39 40 41 42 43 44 45 46 47 48 49 50

535
ASUS43 KTOP 230208
RWRKS

WEATHER ROUNDUP FOR KANSAS
NATIONAL WEATHER SERVICE GOODLAND KS
900 PM CDT SUN APR 22 2018

NOTE:  "FAIR" INDICATES FEW OR NO CLOUDS BELOW 12,000 FEET WITH NO
SIGNIFICANT WEATHER AND/OR OBSTRUCTIONS TO VISIBILITY.

KSZ001>006-013>018-027>032-041>047-230300-
NORTHWEST KANSAS

CITY           SKY/WX    TMP DP  RH WIND       PRES   REMARKS
GOODLAND       CLEAR     46  37  71 SE8       30.15R
HAYS           CLEAR     50  40  68 E7        30.14R
HILL CITY      MOCLDY    50  41  71 N6        30.15R
RUSSELL        CLEAR     50  42  74 E8        30.13R
$$

KSZ061>065-074>080-084>089-230300-
SOUTHWEST KANSAS

CITY           SKY/WX    TMP DP  RH WIND       PRES   REMARKS
DODGE CITY     MOCLDY    52  38  58 E7        30.13R
ELKHART        CLEAR     50  41  72 E7        30.16R
GARDEN CITY    CLEAR     52  39  61 NE3       30.15R
GREAT BEND     PTCLDY    53  42  66 NE7       30.13R
LIBERAL        CLEAR     52  39  61 NE3       30.16R
PRATT          PTCLDY    53  40  61 NE8       30.12R
$$

KSZ066>073-081>083-090>101-230300-
SOUTHEAST KANSAS

CITY           SKY/WX    TMP DP  RH WIND       PRES   REMARKS
CHANUTE        MOCLDY    56  50  80 NE7       30.06R
COFFEYVILLE    CLOUDY    53  52  96 N10       30.04R
HUTCHINSON     CLOUDY    56  43  61 N8        30.11S
MEDICINE LODGE   N/A     54  42  64 NE8       30.10S
NEWTON         CLOUDY    54  43  66 N12       30.10R
PARSONS        CLOUDY    54  52  93 N8        30.06R
WICHITA INTL   CLOUDY    56  43  61 N13       30.09R
WICHITA JABRA  CLOUDY    54  44  69 NE8       30.10R
WICHITA MCCONL CLOUDY    56  42  60 N12       30.09
WINFIELD       CLOUDY    52  51  97 N9        30.09S
$$

KSZ007>012-019>026-033>040-048>060-102>105-230300-
NORTHEAST KANSAS

CITY           SKY/WX    TMP DP  RH WIND       PRES   REMARKS
CONCORDIA      PTCLDY    53  38  56 NW6       30.13R
EMPORIA        CLOUDY    56  48  74 CALM      30.09R
LAWRENCE       CLOUDY    63  44  50 E10       30.09R
MANHATTAN      CLOUDY    62  42  47 CALM      30.10R
MARYSVILLE     CLOUDY    57  41  54 E7        30.12R
OLATHE IND     CLOUDY    60  45  57 NE8       30.08R
OLATHE EXE     CLOUDY    59  45  59 NE9       30.07R
SALINA         CLOUDY    59  44  57 N8        30.12R
TOPEKA BILLARD CLOUDY    63  44  50 NE8       30.08R
TOPEKA FORBES  CLOUDY    63  44  50 NE6       30.08R
$$




USA.gov is the U.S. government's official web portal to all federal, state and local government web resources and services.